User: anonymous   Login
Location: Unspecified
(0.0000°N, 0.0000°E)
Time: 23:15:51
(UTC+00:00)
Language:

TATIANA 2 - Orbit

View from above orbital plane
View from above orbital plane
View from above satellite
View from above satellite

Ground track
Ground track

The orbit data is extracted from the following two-line orbital elements,

1 35868U 09049D   18050.95472142 -.00000003 +00000-0 +17189-4 0  9994
2 35868 098.4034 068.0144 0005254 118.2231 241.9479 14.22804354437381
Epoch (UTC): 19 February 2018 22:54:47
Eccentricity: 0.0005254
inclination: 98.4034°
perigee height: 812 km
apogee height: 819 km
right ascension of ascending node: 68.0144°
argument of perigee: 118.2231°
revolutions per day: 14.22804354
mean anomaly at epoch: 241.9479°
orbit number at epoch: 43738

The dashed part of the orbit path shows where the satellite is in the earth's shadow,  

DLR